This is the latest recevied weather packets stored in our database for station/object BG5HLN-13. If no packets are shown the sender has not sent any weather packets the latest 10 day(s).
| Time | Temp. | Humidity | Pressure | Rain* | Wind** | Luminosity | Snow |
|---|---|---|---|---|---|---|---|
| 1787918781 | 31.11° C | 89% | 1002.7 hPa | 0 mm | - | - | - |
| 1787918177 | 31.67° C | 90% | 1002.5 hPa | 0 mm | - | - | - |
| 1787917577 | 31.67° C | 90% | 1002.3 hPa | 0 mm | - | - | - |
| 1787916978 | 31.67° C | 90% | 1002.2 hPa | 0 mm | - | - | - |
| 1787916378 | 31.67° C | 89% | 1002.2 hPa | 0 mm | - | - | - |
| 1787915777 | 31.67° C | 89% | 1001.9 hPa | 0 mm | - | - | - |
| 1787915178 | 31.67° C | 89% | 1001.7 hPa | 0 mm | - | - | - |
| 1787914578 | 31.67° C | 88% | 1001.6 hPa | 0.25 mm | - | - | - |
| 1787913977 | 31.67° C | 88% | 1001.6 hPa | 0.25 mm | - | - | - |
| 1787913377 | 31.67° C | 87% | 1001.6 hPa | 1.78 mm | - | - | - |
| 1787912777 | 31.67° C | 87% | 1001.5 hPa | 2.54 mm | - | - | - |
| 1787912177 | 31.67° C | 87% | 1001.3 hPa | 2.54 mm | - | - | - |
| 1787911577 | 32.22° C | 87% | 1001.2 hPa | 2.54 mm | - | - | - |
| 1787910978 | 32.22° C | 87% | 1001 hPa | 2.79 mm | - | - | - |
| 1787910378 | 32.22° C | 87% | 1001 hPa | 4.06 mm | - | - | - |
| 1787909776 | 32.22° C | 86% | 1000.8 hPa | 3.3 mm | - | - | - |
| 1787909177 | 32.22° C | 87% | 1000.5 hPa | 2.54 mm | - | - | - |
| 1787908577 | 32.22° C | 87% | 1000.6 hPa | 3.3 mm | - | - | - |
| 1787907976 | 32.22° C | 87% | 1000.6 hPa | 4.57 mm | - | - | - |
| 1787907377 | 32.22° C | 88% | 1000.5 hPa | 3.81 mm | - | - | - |
| 1787906778 | 32.78° C | 88% | 1000.5 hPa | 6.6 mm | - | - | - |
| 1787906176 | 32.22° C | 88% | 1000.5 hPa | 9.14 mm | - | - | - |
| 1787905577 | 32.78° C | 87% | 1000.4 hPa | 12.7 mm | - | - | - |
| 1787904977 | 32.78° C | 88% | 1000.3 hPa | 12.19 mm | - | - | - |
| 1787904376 | 32.22° C | 88% | 1000.3 hPa | 24.89 mm | - | - | - |
* Rain latest hour (hover to see other rain measurements)
** Current wind speed in m/s (hover to see current wind gust speed)